Terug naar catalogus

PSLV DEB

ActiefPO
NORAD 35351·DEBRIS·🇮🇳 India

Gelanceerd Oct 22, 2001 vanaf Satish Dhawan Space Centre

Loading…

Volgende Passages (komende 24 uur)

TLE

VersSource: Space-Track

Epoch: Sep 13, 2026, 16:01 UTC

1 35351U 01049QK  26256.66782157  .00003609  00000-0  65502-3 0  9993
2 35351  98.7921 334.6047 0004512  88.5987 271.5732 14.66905956697559

Volg PSLV DEB in realtime met AllMySat

Download on the App Store